DW5683 Weather Reports


time (UTC)temp
F
wind
direction
speed
knots
gust
knots
rain 1hr
in
rain 24hr
in
rain mn
in
humidity
%
barometer
mb
20260902091553 59 0 0.0 1.7 0.00 0.00 0.00 80 1016.2
20260902090049 59 0 0.9 2.6 0.00 0.00 0.00 80 1016.1
20260902084552 59 136 0.9 2.6 0.00 0.00 0.00 80 1016.1
20260902083052 60 136 0.9 2.6 0.00 0.00 0.00 79 1016.1
20260902081602 60 0 0.9 3.5 0.00 0.00 0.00 79 1016.1
20260902080044 60 136 0.0 2.6 0.00 0.00 0.00 78 1016.0
20260902074553 60 0 0.9 2.6 0.00 0.00 0.00 78 1015.8
20260902073044 60 136 0.9 3.5 0.00 0.00 0.00 78 1015.7
20260902071549 60 136 0.9 4.3 0.00 0.00 0.00 77 1015.7
20260902070041 61 139 0.9 3.5 0.00 0.00 0.00 76 1015.8
20260902064541 61 138 0.0 4.3 0.00 0.00 0.00 76 1015.7
20260902063046 61 155 0.9 4.3 0.00 0.00 0.00 74 1016.0
20260902061549 61 0 0.9 4.3 0.00 0.00 0.00 73 1016.1
20260902060054 61 156 0.9 4.3 0.00 0.00 0.00 72 1016.0
20260902054545 62 0 0.0 5.2 0.00 0.00 0.00 71 1016.0
20260902053042 62 158 0.9 4.3 0.00 0.00 0.00 70 1016.0
20260902051542 62 172 0.9 4.3 0.00 0.00 0.00 69 1015.9
20260902050104 63 173 0.9 2.6 0.00 0.00 0.00 68 1015.9
20260902044604 64 0 0.0 1.7 0.00 0.00 0.00 66 1015.8
20260902043041 64 0 0.0 3.5 0.00 0.00 0.00 65 1015.5
20260902041541 65 173 1.7 6.1 0.00 0.00 0.00 64 1015.4
20260902040051 65 0 0.9 5.2 0.00 0.00 0.00 62 1015.0
20260902034554 66 187 0.9 5.2 0.00 0.00 0.00 60 1014.7
20260902033041 67 185 2.6 7.8 0.00 0.00 0.00 58 1014.5
20260902031549 67 192 2.6 7.0 0.00 0.00 0.00 56 1014.2
20260902030044 68 209 0.9 5.2 0.00 0.00 0.00 54 1014.0
20260902024549 69 203 2.6 10.4 0.00 0.00 0.00 53 1013.8
20260902023043 69 217 0.9 6.1 0.00 0.00 0.00 52 1013.7
20260902021552 70 171 1.7 7.8 0.00 0.00 0.00 51 1013.5
20260902020040 72 201 1.7 7.8 0.00 0.00 0.00 49 1013.5
20260902014542 74 186 2.6 8.7 0.00 0.00 0.00 46 1013.3
20260902013047 75 203 2.6 8.7 0.00 0.00 0.00 43 1013.3
20260902011543 76 178 0.0 9.6 0.00 0.00 0.00 43 1013.2
20260902010044 76 213 0.9 7.0 0.00 0.00 0.00 42 1013.3
20260902004549 76 225 0.9 7.8 0.00 0.00 0.00 42 1013.2
20260902003045 77 196 2.6 7.8 0.00 0.00 0.00 41 1013.4
20260902001541 77 177 2.6 7.0 0.00 0.00 0.00 39 1013.4
20260902000047 77 186 1.7 7.8 0.00 0.00 0.00 39 1013.5
20260901234548 78 185 1.7 10.4 0.00 0.00 0.00 39 1013.5
20260901233042 78 177 3.5 9.6 0.00 0.00 0.00 41 1013.5
20260901231548 77 168 0.9 6.1 0.00 0.00 0.00 41 1013.7
20260901230051 78 0 0.9 9.6 0.00 0.00 0.00 42 1013.9
20260901224542 77 174 4.3 8.7 0.00 0.00 0.00 42 1014.0
20260901223050 78 194 2.6 7.8 0.00 0.00 0.00 43 1014.0
20260901221547 79 203 2.6 7.8 0.00 0.00 0.00 42 1014.2
20260901220041 78 284 2.6 10.4 0.00 0.00 0.00 43 1014.2
20260901214542 77 0 0.9 7.0 0.00 0.00 0.00 44 1014.3
20260901213109 76 189 3.5 8.7 0.00 0.00 0.00 47 1014.4
20260901211543 76 0 0.0 9.6 0.00 0.00 0.00 46 1014.4
20260901210042 77 0 0.0 6.1 0.00 0.00 0.00 45 1014.6
20260901204548 76 222 2.6 7.0 0.00 0.00 0.00 47 1014.7
20260901203043 75 0 1.7 6.1 0.00 0.00 0.00 48 1015.0
20260901201541 74 182 2.6 7.8 0.00 0.00 0.00 49 1015.1
20260901200048 74 186 1.7 7.8 0.00 0.00 0.00 51 1015.0
20260901194544 72 184 1.7 9.6 0.00 0.00 0.00 53 1015.2
20260901193042 72 0 1.7 6.1 0.00 0.00 0.00 55 1015.5
20260901191547 72 192 1.7 6.1 0.00 0.00 0.00 56 1015.4
20260901190046 71 194 1.7 7.0 0.00 0.00 0.00 58 1015.6
20260901184551 71 136 1.7 8.7 0.00 0.00 0.00 54 1015.8
20260901183045 70 177 0.9 7.8 0.00 0.00 0.00 57 1015.6
20260901181543 69 102 2.6 11.3 0.00 0.00 0.00 57 1015.7
20260901180043 69 184 0.9 6.1 0.00 0.00 0.00 59 1015.6
20260901174541 67 113 1.7 11.3 0.00 0.00 0.00 61 1015.5
20260901173045 68 121 5.2 11.3 0.00 0.00 0.00 58 1015.6
20260901171602 68 122 1.7 10.4 0.00 0.00 0.00 61 1015.5
20260901170048 69 169 1.7 9.6 0.00 0.00 0.00 61 1015.1
20260901164554 66 125 3.5 9.6 0.00 0.00 0.00 64 1015.3
20260901163042 65 128 1.7 10.4 0.00 0.00 0.00 67 1015.3
20260901161542 64 138 1.7 7.8 0.00 0.00 0.00 69 1015.1
20260901160045 63 142 0.0 7.0 0.00 0.00 0.00 71 1014.9
20260901154542 62 141 0.9 4.3 0.00 0.00 0.00 73 1014.8
20260901153055 61 141 0.9 6.1 0.00 0.00 0.00 74 1014.5
20260901151547 60 142 0.0 7.0 0.00 0.00 0.00 75 1014.3
20260901150043 60 142 1.7 7.0 0.00 0.00 0.00 76 1014.3
20260901144541 60 136 0.9 7.0 0.00 0.00 0.00 76 1014.0
20260901143049 60 140 0.0 7.8 0.00 0.00 0.00 77 1013.8
20260901141544 59 121 0.0 5.2 0.00 0.00 0.00 78 1013.4
20260901140042 59 120 0.9 7.8 0.00 0.00 0.00 79 1013.2
20260901134550 59 117 0.9 5.2 0.00 0.00 0.00 80 1013.3
20260901133050 58 117 0.9 5.2 0.00 0.00 0.00 80 1013.2
20260901131543 58 117 1.7 6.1 0.00 0.00 0.00 81 1012.9
20260901130045 58 117 1.7 7.8 0.00 0.00 0.00 81 1012.6
20260901124545 58 119 1.7 6.1 0.00 0.00 0.00 81 1012.8
20260901123044 58 119 1.7 7.8 0.00 0.00 0.00 81 1012.9
20260901121545 58 122 0.9 6.1 0.00 0.00 0.00 81 1013.0
20260901120041 58 125 2.6 11.3 0.00 0.00 0.00 80 1012.7
20260901114557 59 117 2.6 7.8 0.00 0.00 0.00 80 1012.5
20260901113043 59 119 1.7 6.1 0.00 0.00 0.00 80 1012.5
20260901111547 58 119 1.7 5.2 0.00 0.00 0.00 80 1012.4
20260901110044 59 120 1.7 7.0 0.00 0.00 0.00 80 1012.4
20260901104544 59 121 2.6 7.8 0.00 0.00 0.00 80 1012.3
20260901103042 59 123 0.9 6.1 0.00 0.00 0.00 80 1012.3
20260901101544 58 118 1.7 6.1 0.00 0.00 0.00 81 1012.1
20260901100049 58 115 0.9 7.0 0.00 0.00 0.00 80 1012.1
20260901094543 58 116 1.7 7.0 0.00 0.00 0.00 80 1012.2
20260901093043 58 117 1.7 6.1 0.00 0.00 0.00 80 1012.3